Location: Trout Lake
(45.9980°N, 121.5270°W)
Time: 19:37:57
(UTC-08:00)

Timation 2 Rocket - Pass Details

Date: 06 December 2023
Orbit: 903 x 1077 km, 70.0° (Epoch: 22 February)

Event Time Altitude Azimuth Distance (km) Brightness Sun altitude
Rises 18:34:16 0° 212° (SSW) 3,513 7.5 -22.3°
Reaches altitude 10° 18:36:45 10° 214° (SW) 2,575 6.8 -22.7°
Maximum altitude 18:42:40 74° 299° (WNW) 948 4.0 -23.7°
Enters shadow 18:45:51 29° 20° (NNE) 1,610 4.9 -24.3°
